DW8632 Weather Reports


time (UTC)temp
F
wind
direction
speed
knots
gust
knots
rain 1hr
in
rain 24hr
in
rain mn
in
humidity
%
barometer
mb
20220812001545 90 320 3.5 7.0 0.00 0.00 0.00 42 1003.6
20220812000102 91 289 4.3 7.8 0.00 0.00 0.00 41 1003.5
20220811234605 91 310 1.7 7.0 0.00 0.00 0.00 40 1003.6
20220811233045 92 336 2.6 5.2 0.00 0.00 0.00 41 1003.5
20220811231545 91 76 0.0 2.6 0.00 0.00 0.00 42 1003.5
20220811230037 91 43 0.0 2.6 0.00 0.00 0.00 42 1003.6
20220811224529 91 117 0.0 0.9 0.00 0.00 0.00 42 1003.8
20220811223052 91 117 0.0 1.7 0.00 0.00 0.00 42 1003.8
20220811221524 92 117 0.0 1.7 0.00 0.00 0.00 40 1003.8
20220811220035 93 128 0.9 3.5 0.00 0.00 0.00 39 1003.9
20220811214552 91 175 0.9 2.6 0.00 0.00 0.00 41 1004.0
20220811213018 91 297 0.9 5.2 0.00 0.00 0.00 39 1004.1
20220811211522 92 74 0.0 4.3 0.00 0.00 0.00 41 1004.3
20220811210013 92 36 1.7 3.5 0.00 0.00 0.00 41 1004.2
20220811204506 90 134 0.9 7.8 0.00 0.00 0.00 41 1004.3
20220811203002 89 319 0.9 3.5 0.00 0.00 0.00 43 1004.5
20220811201558 88 257 1.7 4.3 0.00 0.00 0.00 43 1004.9
20220811194556 87 250 0.9 10.4 0.00 0.00 0.00 45 1005.1
20220811193030 87 185 0.0 6.1 0.00 0.00 0.00 46 1005.3
20220811191542 87 170 1.7 4.3 0.00 0.00 0.00 48 1005.5
20220811190049 86 172 0.0 3.5 0.00 0.00 0.00 49 1005.6
20220811184544 84 188 1.7 8.7 0.00 0.00 0.00 51 1005.8
20220811183025 83 192 4.3 9.6 0.00 0.00 0.00 52 1006.1
20220811181525 82 162 3.5 9.6 0.00 0.00 0.00 55 1006.1
20220811180031 82 186 5.2 12.2 0.00 0.00 0.00 54 1005.9
20220811174527 82 168 4.3 11.3 0.00 0.00 0.00 56 1006.1
20220811173014 80 160 6.1 9.6 0.00 0.00 0.00 57 1006.1
20220811171510 79 180 5.2 8.7 0.00 0.00 0.00 59 1006.3
20220811170010 77 155 4.3 9.6 0.00 0.00 0.00 64 1006.5
20220811164505 75 175 4.3 8.7 0.00 0.00 0.00 66 1006.6
20220811163058 74 169 4.3 11.3 0.00 0.00 0.00 67 1006.8
20220811161556 74 142 5.2 11.3 0.00 0.00 0.00 67 1007.0
20220811160104 74 166 4.3 8.7 0.00 0.00 0.00 69 1006.8
20220811154554 74 159 5.2 10.4 0.00 0.00 0.00 68 1006.6
20220811153053 73 150 3.5 7.8 0.00 0.00 0.00 70 1006.7
20220811151538 72 153 5.2 8.7 0.00 0.00 0.00 69 1007.1
20220811150034 71 140 3.5 10.4 0.00 0.00 0.00 70 1007.1
20220811144544 71 152 3.5 9.6 0.00 0.00 0.00 71 1007.2
20220811143039 71 131 1.7 12.2 0.00 0.00 0.00 72 1006.7
20220811141545 70 115 2.6 11.3 0.00 0.00 0.00 74 1006.4
20220811140034 70 146 0.0 7.8 0.00 0.00 0.00 74 1006.8
20220811134527 69 144 0.0 4.3 0.00 0.00 0.00 74 1007.2
20220811133030 69 115 1.7 7.8 0.00 0.00 0.00 74 1007.4
20220811131526 69 92 1.7 5.2 0.00 0.00 0.00 72 1007.7
20220811130038 69 80 2.6 12.2 0.00 0.00 0.00 71 1007.6
20220811124522 68 102 3.5 9.6 0.00 0.00 0.00 71 1007.7
20220811123026 69 76 0.9 3.5 0.00 0.00 0.00 70 1007.8
20220811121520 69 55 0.9 6.1 0.00 0.00 0.00 68 1007.9
20220811120014 69 89 0.9 8.7 0.00 0.00 0.00 67 1007.9
20220811114514 69 96 2.6 7.8 0.00 0.00 0.00 67 1007.5
20220811113010 70 88 1.7 7.0 0.00 0.00 0.00 66 1007.6
20220811111507 70 96 2.6 7.8 0.00 0.00 0.00 66 1007.6
20220811110019 70 86 2.6 7.8 0.00 0.00 0.00 66 1007.7
20220811104504 70 90 2.6 7.0 0.00 0.00 0.00 66 1007.7
20220811103009 70 108 3.5 8.7 0.00 0.00 0.00 65 1007.6
20220811101600 70 101 0.0 2.6 0.00 0.00 0.00 64 1008.1
20220811100112 70 74 0.0 4.3 0.00 0.00 0.00 62 1008.4
20220811094538 70 75 0.9 5.2 0.00 0.00 0.00 61 1008.7
20220811093039 71 86 0.9 7.0 0.00 0.00 0.00 60 1008.9
20220811091542 71 109 0.9 6.1 0.00 0.00 0.00 59 1008.8
20220811090034 71 86 0.9 3.5 0.00 0.00 0.00 58 1009.0
20220811084529 72 76 0.9 8.7 0.00 0.00 0.00 56 1009.1
20220811083030 72 117 2.6 7.8 0.00 0.00 0.00 55 1009.2
20220811081524 72 81 4.3 11.3 0.00 0.00 0.00 55 1009.3
20220811080020 72 117 4.3 10.4 0.00 0.00 0.00 54 1009.4
20220811074518 73 96 2.6 13.0 0.00 0.00 0.00 53 1009.6
20220811073014 73 105 3.5 10.4 0.00 0.00 0.00 53 1009.8
20220811071515 73 101 3.5 13.0 0.00 0.00 0.00 52 1009.9
20220811070009 73 82 0.9 9.6 0.00 0.00 0.00 52 1010.0
20220811064512 73 94 2.6 12.2 0.00 0.00 0.00 52 1010.2
20220811063007 73 69 2.6 9.6 0.00 0.00 0.00 52 1010.1
20220811061504 73 61 4.3 9.6 0.00 0.00 0.00 51 1010.1
20220811060003 74 84 2.6 10.4 0.00 0.00 0.00 51 1010.1
20220811054600 74 78 3.5 11.3 0.00 0.00 0.00 50 1010.3
20220811053055 74 71 4.3 13.0 0.00 0.00 0.00 50 1010.2
20220811050041 75 104 1.7 9.6 0.00 0.00 0.00 49 1010.3
20220811044534 75 64 3.5 10.4 0.00 0.00 0.00 47 1010.2
20220811043029 76 76 6.1 12.2 0.00 0.00 0.00 47 1010.2
20220811041526 76 79 3.5 15.6 0.00 0.00 0.00 46 1010.2
20220811040034 77 97 3.5 13.0 0.00 0.00 0.00 46 1010.1
20220811034528 77 80 2.6 14.8 0.00 0.00 0.00 45 1010.1
20220811033024 77 84 3.5 13.0 0.00 0.00 0.00 45 1010.0
20220811030129 79 81 1.7 10.4 0.00 0.00 0.00 45 1009.8
20220811024602 80 45 6.1 12.2 0.00 0.00 0.00 44 1009.5
20220811023100 80 67 5.2 14.8 0.00 0.00 0.00 43 1009.3
20220811021614 80 61 6.1 13.9 0.00 0.00 0.00 43 1009.2
20220811020051 81 66 7.8 16.5 0.00 0.00 0.00 43 1009.2
20220811014534 82 91 3.5 13.9 0.00 0.00 0.00 44 1009.0
20220811013036 83 78 5.2 16.5 0.00 0.00 0.00 44 1009.0
20220811011605 84 86 5.2 14.8 0.00 0.00 0.00 44 1008.7
20220811010031 85 97 4.3 12.2 0.00 0.00 0.00 45 1008.7
20220811004533 86 76 2.6 13.0 0.00 0.00 0.00 46 1008.6
20220811003037 87 67 3.5 13.0 0.00 0.00 0.00 44 1008.5